THA992 VTBS-VTSP

Flight info

Callsign THA992
Flight time 1h 3m
Altitude 38000
Route VANKO1E VANKO Y8 SAVSA SAVSA1D
Aircraft A333/H-SDE3GHIJ2J3J5M1RVWXY/LB2D1

Departure

Time 2026-05-06 07:15
Airport Suvarnabhumi Airport (VTBS)

Arrival

Time 2026-05-06 08:19
Airport Phuket International Airport (VTSP)
Time Latitude Longitude Altitude Speed Heading
2026-05-06 06:54 13.70673 100.75963 17 ft 0 kts 14°
2026-05-06 06:57 13.70658 100.75959 18 ft 2 kts 14°
2026-05-06 06:57 13.70642 100.75955 17 ft 2 kts 14°
2026-05-06 06:58 13.70626 100.75951 20 ft 2 kts 14°
2026-05-06 06:58 13.70610 100.75947 20 ft 2 kts 44°
2026-05-06 06:58 13.70604 100.75932 19 ft 2 kts 77°
2026-05-06 06:58 13.70603 100.75915 20 ft 2 kts 111°
2026-05-06 06:59 13.70608 100.75901 20 ft 1 kts 107°
2026-05-06 06:59 13.70608 100.75899 20 ft 0 kts 105°
2026-05-06 07:00 13.70608 100.75901 20 ft 1 kts 105°
2026-05-06 07:00 13.70603 100.75919 20 ft 4 kts 105°
2026-05-06 07:00 13.70594 100.75953 17 ft 6 kts 105°
2026-05-06 07:01 13.70581 100.76002 17 ft 8 kts 104°
2026-05-06 07:01 13.70565 100.76064 17 ft 10 kts 104°
2026-05-06 07:01 13.70543 100.76139 17 ft 10 kts 122°
2026-05-06 07:01 13.70485 100.76156 17 ft 7 kts 189°
2026-05-06 07:02 13.70430 100.76143 17 ft 9 kts 194°
2026-05-06 07:02 13.70363 100.76126 17 ft 11 kts 195°
2026-05-06 07:02 13.70283 100.76104 17 ft 13 kts 194°
2026-05-06 07:02 13.70192 100.76080 17 ft 14 kts 194°
2026-05-06 07:03 13.70089 100.76053 17 ft 16 kts 194°
2026-05-06 07:03 13.69974 100.76023 17 ft 18 kts 194°
2026-05-06 07:03 13.69850 100.75991 17 ft 19 kts 194°
2026-05-06 07:03 13.69716 100.75956 17 ft 21 kts 194°
2026-05-06 07:04 13.69572 100.75918 17 ft 22 kts 194°
2026-05-06 07:04 13.69420 100.75877 17 ft 23 kts 194°
2026-05-06 07:04 13.69262 100.75836 16 ft 24 kts 194°
2026-05-06 07:04 13.69097 100.75792 17 ft 24 kts 194°
2026-05-06 07:05 13.68930 100.75748 17 ft 25 kts 194°
2026-05-06 07:05 13.68756 100.75703 17 ft 25 kts 194°
2026-05-06 07:05 13.68587 100.75658 17 ft 26 kts 194°
2026-05-06 07:05 13.68442 100.75620 17 ft 20 kts 194°
2026-05-06 07:06 13.68347 100.75583 17 ft 5 kts 236°
2026-05-06 07:06 13.68343 100.75548 17 ft 6 kts 272°
2026-05-06 07:06 13.68352 100.75501 17 ft 8 kts 287°
2026-05-06 07:06 13.68368 100.75442 17 ft 10 kts 285°
2026-05-06 07:07 13.68387 100.75370 17 ft 12 kts 285°
2026-05-06 07:07 13.68408 100.75284 17 ft 13 kts 284°
2026-05-06 07:07 13.68432 100.75186 17 ft 15 kts 284°
2026-05-06 07:07 13.68460 100.75076 17 ft 17 kts 285°
2026-05-06 07:08 13.68490 100.74958 17 ft 18 kts 285°
2026-05-06 07:08 13.68524 100.74828 17 ft 20 kts 285°
2026-05-06 07:08 13.68558 100.74688 17 ft 21 kts 284°
2026-05-06 07:08 13.68594 100.74539 17 ft 22 kts 284°
2026-05-06 07:09 13.68635 100.74383 17 ft 23 kts 285°
2026-05-06 07:09 13.68677 100.74220 17 ft 24 kts 284°
2026-05-06 07:09 13.68712 100.74099 18 ft 6 kts 313°
2026-05-06 07:09 13.68749 100.74089 18 ft 6 kts 359°
2026-05-06 07:10 13.68793 100.74095 18 ft 7 kts 11°
2026-05-06 07:10 13.68861 100.74114 18 ft 12 kts 15°
2026-05-06 07:10 13.68949 100.74137 17 ft 14 kts 14°
2026-05-06 07:10 13.69052 100.74163 17 ft 16 kts 14°
2026-05-06 07:11 13.69165 100.74194 17 ft 18 kts 16°
2026-05-06 07:11 13.69288 100.74225 17 ft 19 kts 14°
2026-05-06 07:11 13.69420 100.74259 16 ft 20 kts 15°
2026-05-06 07:11 13.69561 100.74298 17 ft 21 kts 15°
2026-05-06 07:12 13.69709 100.74338 16 ft 23 kts 14°
2026-05-06 07:12 13.69844 100.74373 17 ft 17 kts 12°
2026-05-06 07:12 13.69894 100.74354 17 ft 6 kts 308°
2026-05-06 07:12 13.69910 100.74310 17 ft 8 kts 286°
2026-05-06 07:13 13.69926 100.74251 17 ft 9 kts 284°
2026-05-06 07:13 13.69943 100.74181 17 ft 11 kts 284°
2026-05-06 07:13 13.69963 100.74100 17 ft 13 kts 284°
2026-05-06 07:13 13.69987 100.74007 17 ft 14 kts 284°
2026-05-06 07:14 13.70008 100.73907 18 ft 11 kts 270°
2026-05-06 07:14 13.69974 100.73850 18 ft 10 kts 224°
2026-05-06 07:14 13.69907 100.73818 17 ft 11 kts 194°
2026-05-06 07:14 13.69770 100.73781 16 ft 43 kts 194°
2026-05-06 07:15 13.69260 100.73646 18 ft 108 kts 194°
2026-05-06 07:15 13.68328 100.73401 23 ft 165 kts 195°
2026-05-06 07:15 13.67105 100.73093 423 ft 193 kts 194°
2026-05-06 07:15 13.65777 100.72769 1375 ft 199 kts 193°
2026-05-06 07:16 13.64354 100.72428 1943 ft 225 kts 193°
2026-05-06 07:16 13.62760 100.72045 2417 ft 249 kts 193°
2026-05-06 07:16 13.61035 100.71637 3215 ft 257 kts 193°
2026-05-06 07:16 13.59278 100.71218 4119 ft 261 kts 193°
2026-05-06 07:17 13.57497 100.70795 5021 ft 264 kts 193°
2026-05-06 07:17 13.55687 100.70367 5923 ft 268 kts 193°
2026-05-06 07:17 13.53859 100.69919 6846 ft 271 kts 197°
2026-05-06 07:17 13.52167 100.69106 7742 ft 275 kts 217°
2026-05-06 07:18 13.50778 100.67743 8661 ft 278 kts 228°
2026-05-06 07:18 13.49499 100.66238 9487 ft 281 kts 230°
2026-05-06 07:18 13.48222 100.64698 9987 ft 284 kts 230°
2026-05-06 07:18 13.46929 100.63146 10140 ft 286 kts 230°
2026-05-06 07:19 13.45600 100.61562 10166 ft 306 kts 229°
2026-05-06 07:19 13.44206 100.59908 10167 ft 304 kts 229°
2026-05-06 07:19 13.42808 100.58255 10167 ft 317 kts 229°
2026-05-06 07:19 13.41353 100.56537 10168 ft 310 kts 229°
2026-05-06 07:20 13.39898 100.54861 10161 ft 322 kts 226°
2026-05-06 07:20 13.38278 100.53301 10277 ft 323 kts 222°
2026-05-06 07:20 13.36564 100.51758 10695 ft 332 kts 221°
2026-05-06 07:20 13.34807 100.50191 11524 ft 335 kts 221°
2026-05-06 07:21 13.33036 100.48609 12378 ft 339 kts 221°
2026-05-06 07:21 13.31241 100.47004 13188 ft 343 kts 221°
2026-05-06 07:21 13.29449 100.45400 13957 ft 347 kts 221°
2026-05-06 07:21 13.27615 100.43758 14712 ft 351 kts 221°
2026-05-06 07:22 13.25762 100.42098 15428 ft 354 kts 221°
2026-05-06 07:22 13.23917 100.40447 15861 ft 357 kts 221°
2026-05-06 07:22 13.22040 100.38765 15994 ft 358 kts 221°
2026-05-06 07:22 13.20156 100.37079 16034 ft 360 kts 221°
2026-05-06 07:23 13.18253 100.35376 16442 ft 364 kts 221°
2026-05-06 07:23 13.16335 100.33660 17189 ft 366 kts 221°
2026-05-06 07:23 13.14431 100.31956 17748 ft 367 kts 221°
2026-05-06 07:23 13.12499 100.30229 17969 ft 369 kts 221°
2026-05-06 07:24 13.10559 100.28493 17994 ft 370 kts 221°
2026-05-06 07:24 13.08610 100.26751 17997 ft 371 kts 221°
2026-05-06 07:24 13.06681 100.25027 17998 ft 371 kts 221°
2026-05-06 07:24 13.04732 100.23285 18070 ft 372 kts 221°
2026-05-06 07:25 13.02768 100.21531 18509 ft 375 kts 221°
2026-05-06 07:25 13.00797 100.19769 19212 ft 377 kts 221°
2026-05-06 07:25 12.98875 100.17906 19883 ft 380 kts 225°
2026-05-06 07:25 12.97004 100.15969 20480 ft 383 kts 226°
2026-05-06 07:26 12.95130 100.14007 21058 ft 387 kts 226°
2026-05-06 07:26 12.93252 100.12043 21633 ft 390 kts 226°
2026-05-06 07:26 12.91337 100.10044 22171 ft 393 kts 226°
2026-05-06 07:26 12.89411 100.08035 22717 ft 397 kts 226°
2026-05-06 07:27 12.87461 100.06003 23232 ft 400 kts 225°
2026-05-06 07:27 12.85529 100.03991 23744 ft 403 kts 225°
2026-05-06 07:27 12.83547 100.01928 24235 ft 406 kts 225°
2026-05-06 07:27 12.81549 99.99849 24707 ft 409 kts 225°
2026-05-06 07:28 12.79540 99.97759 25172 ft 412 kts 225°
2026-05-06 07:28 12.77534 99.95673 25613 ft 415 kts 225°
2026-05-06 07:28 12.73448 99.91427 26485 ft 421 kts 225°
2026-05-06 07:29 12.71384 99.89282 26898 ft 424 kts 225°
2026-05-06 07:29 12.69303 99.87120 27306 ft 427 kts 225°
2026-05-06 07:29 12.67207 99.84943 27706 ft 429 kts 225°
2026-05-06 07:29 12.65127 99.82783 28101 ft 432 kts 225°
2026-05-06 07:30 12.62974 99.80610 28482 ft 435 kts 222°
2026-05-06 07:30 12.60576 99.78708 28862 ft 438 kts 212°
2026-05-06 07:30 12.57857 99.77258 29235 ft 441 kts 202°
2026-05-06 07:30 12.54944 99.76363 29590 ft 444 kts 191°
2026-05-06 07:31 12.51862 99.76015 29935 ft 447 kts 183°
2026-05-06 07:31 12.48737 99.75917 30289 ft 449 kts 181°
2026-05-06 07:31 12.45597 99.75915 30653 ft 452 kts 180°
2026-05-06 07:31 12.42482 99.75950 31000 ft 454 kts 179°
2026-05-06 07:32 12.39300 99.75994 31342 ft 456 kts 179°
2026-05-06 07:32 12.37194 99.76018 31552 ft 458 kts 180°
2026-05-06 07:32 12.33981 99.76047 31874 ft 461 kts 180°
2026-05-06 07:32 12.29679 99.76067 32284 ft 464 kts 180°
2026-05-06 07:33 12.27532 99.76072 32531 ft 464 kts 180°
2026-05-06 07:33 12.24297 99.76076 33008 ft 463 kts 180°
2026-05-06 07:33 12.21082 99.76078 33464 ft 461 kts 180°
2026-05-06 07:33 12.17878 99.76079 33874 ft 460 kts 180°
2026-05-06 07:34 12.14707 99.76080 34257 ft 459 kts 180°
2026-05-06 07:34 12.11507 99.76082 34626 ft 459 kts 180°
2026-05-06 07:34 12.08314 99.76084 35014 ft 458 kts 180°
2026-05-06 07:34 12.05125 99.76086 35376 ft 457 kts 180°
2026-05-06 07:35 12.01978 99.76089 35715 ft 456 kts 180°
2026-05-06 07:35 11.98800 99.76092 36066 ft 455 kts 180°
2026-05-06 07:35 11.95626 99.76094 36377 ft 455 kts 180°
2026-05-06 07:35 11.92456 99.76097 36686 ft 455 kts 180°
2026-05-06 07:36 11.89279 99.76100 36959 ft 455 kts 180°
2026-05-06 07:36 11.86141 99.76103 37228 ft 455 kts 180°
2026-05-06 07:36 11.82969 99.76106 37502 ft 455 kts 180°
2026-05-06 07:36 11.79785 99.76109 37771 ft 455 kts 180°
2026-05-06 07:37 11.76616 99.76112 37957 ft 456 kts 180°
2026-05-06 07:37 11.73489 99.76115 38002 ft 453 kts 180°
2026-05-06 07:37 11.67202 99.76122 38000 ft 450 kts 180°
2026-05-06 07:38 11.60965 99.76128 38000 ft 450 kts 180°
2026-05-06 07:38 11.54682 99.76135 38000 ft 450 kts 180°
2026-05-06 07:39 11.48453 99.76142 38000 ft 450 kts 180°
2026-05-06 07:39 11.42176 99.76148 38000 ft 450 kts 180°
2026-05-06 07:40 11.35952 99.76156 38000 ft 450 kts 180°
2026-05-06 07:40 11.29682 99.76163 38000 ft 450 kts 180°
2026-05-06 07:41 11.23414 99.76170 38000 ft 450 kts 180°
2026-05-06 07:41 11.17143 99.76166 37999 ft 450 kts 182°
2026-05-06 07:42 11.11025 99.75149 38000 ft 449 kts 195°
2026-05-06 07:42 11.05000 99.73380 38000 ft 449 kts 197°
2026-05-06 07:43 10.99044 99.71483 38000 ft 449 kts 198°
2026-05-06 07:43 10.93109 99.69589 38000 ft 449 kts 197°
2026-05-06 07:44 10.87129 99.67704 38000 ft 449 kts 197°
2026-05-06 07:44 10.81139 99.65828 38000 ft 449 kts 197°
2026-05-06 07:45 10.75200 99.63972 38000 ft 449 kts 197°
2026-05-06 07:45 10.69213 99.62100 38000 ft 449 kts 197°
2026-05-06 07:46 10.63255 99.60238 38000 ft 449 kts 197°
2026-05-06 07:46 10.57262 99.58365 38000 ft 449 kts 197°
2026-05-06 07:47 10.51283 99.56498 38000 ft 449 kts 197°
2026-05-06 07:47 10.45333 99.54640 38000 ft 449 kts 197°
2026-05-06 07:48 10.39340 99.52770 38000 ft 449 kts 197°
2026-05-06 07:48 10.33393 99.50914 38000 ft 449 kts 197°
2026-05-06 07:49 10.27393 99.49043 38000 ft 449 kts 197°
2026-05-06 07:49 10.21446 99.47189 38000 ft 449 kts 197°
2026-05-06 07:50 10.15485 99.45332 38000 ft 449 kts 197°
2026-05-06 07:50 10.09507 99.43470 38000 ft 449 kts 197°
2026-05-06 07:51 10.03512 99.41603 37830 ft 452 kts 197°
2026-05-06 07:51 10.00491 99.40662 37571 ft 454 kts 197°
2026-05-06 07:51 9.97472 99.39723 37326 ft 454 kts 197°
2026-05-06 07:52 9.94443 99.38780 37074 ft 454 kts 197°
2026-05-06 07:52 9.91454 99.37850 36834 ft 454 kts 197°
2026-05-06 07:52 9.88417 99.36905 36578 ft 454 kts 197°
2026-05-06 07:52 9.85384 99.35962 36327 ft 453 kts 197°
2026-05-06 07:53 9.82376 99.35027 35850 ft 451 kts 197°
2026-05-06 07:53 9.79408 99.34104 35242 ft 453 kts 197°
2026-05-06 07:53 9.76369 99.33159 34563 ft 455 kts 197°
2026-05-06 07:53 9.73328 99.32214 33881 ft 457 kts 197°
2026-05-06 07:54 9.70305 99.31275 33191 ft 458 kts 197°
2026-05-06 07:54 9.67237 99.30321 32484 ft 460 kts 197°
2026-05-06 07:54 9.64169 99.29368 31736 ft 462 kts 197°
2026-05-06 07:54 9.61102 99.28416 31191 ft 459 kts 197°
2026-05-06 07:55 9.58103 99.27485 30726 ft 454 kts 197°
2026-05-06 07:55 9.55099 99.26553 30224 ft 449 kts 197°
2026-05-06 07:55 9.52121 99.25629 29717 ft 446 kts 197°
2026-05-06 07:55 9.49157 99.24708 29100 ft 444 kts 197°
2026-05-06 07:56 9.46205 99.23791 28567 ft 441 kts 197°
2026-05-06 07:56 9.43271 99.22880 28047 ft 437 kts 197°
2026-05-06 07:56 9.40369 99.21978 27538 ft 434 kts 197°
2026-05-06 07:56 9.37534 99.21098 27055 ft 430 kts 197°
2026-05-06 07:57 9.34677 99.20212 26561 ft 426 kts 197°
2026-05-06 07:57 9.31845 99.19333 26032 ft 423 kts 197°
2026-05-06 07:57 9.29071 99.18473 25532 ft 419 kts 197°
2026-05-06 07:57 9.26293 99.17611 25047 ft 415 kts 197°
2026-05-06 07:58 9.23543 99.16758 24557 ft 412 kts 197°
2026-05-06 07:58 9.20805 99.15909 24058 ft 408 kts 197°
2026-05-06 07:58 9.18096 99.15069 23567 ft 405 kts 197°
2026-05-06 07:58 9.15407 99.14230 23097 ft 400 kts 199°
2026-05-06 07:59 9.12921 99.13084 22618 ft 396 kts 211°
2026-05-06 07:59 9.10620 99.11544 22106 ft 393 kts 216°
2026-05-06 07:59 9.08429 99.09891 21644 ft 390 kts 218°
2026-05-06 07:59 9.06317 99.08186 21149 ft 386 kts 219°
2026-05-06 08:00 9.04252 99.06467 20699 ft 382 kts 220°
2026-05-06 08:00 9.02215 99.04757 20245 ft 379 kts 220°
2026-05-06 08:00 9.00214 99.03082 19789 ft 376 kts 220°
2026-05-06 08:00 8.98197 99.01406 19324 ft 374 kts 219°
2026-05-06 08:01 8.96187 98.99746 18885 ft 371 kts 219°
2026-05-06 08:01 8.94184 98.98100 18439 ft 368 kts 219°
2026-05-06 08:01 8.92202 98.96476 17985 ft 365 kts 219°
2026-05-06 08:01 8.90254 98.94883 17553 ft 362 kts 219°
2026-05-06 08:02 8.88290 98.93278 17107 ft 360 kts 219°
2026-05-06 08:02 8.86344 98.91687 16655 ft 358 kts 219°
2026-05-06 08:02 8.84413 98.90108 16210 ft 355 kts 219°
2026-05-06 08:02 8.82522 98.88563 15778 ft 352 kts 219°
2026-05-06 08:03 8.80622 98.87009 15335 ft 350 kts 219°
2026-05-06 08:03 8.78728 98.85466 14849 ft 348 kts 219°
2026-05-06 08:03 8.76840 98.83929 14418 ft 346 kts 219°
2026-05-06 08:03 8.74970 98.82407 14005 ft 343 kts 219°
2026-05-06 08:04 8.73112 98.80895 13563 ft 340 kts 219°
2026-05-06 08:04 8.71277 98.79402 13130 ft 338 kts 219°
2026-05-06 08:04 8.69479 98.77939 12704 ft 335 kts 219°
2026-05-06 08:04 8.67666 98.76464 12287 ft 332 kts 219°
2026-05-06 08:05 8.65877 98.75009 11876 ft 329 kts 219°
2026-05-06 08:05 8.64096 98.73560 11462 ft 326 kts 219°
2026-05-06 08:05 8.62333 98.72127 11047 ft 324 kts 219°
2026-05-06 08:05 8.60582 98.70703 10641 ft 320 kts 219°
2026-05-06 08:06 8.58879 98.69319 10514 ft 307 kts 219°
2026-05-06 08:06 8.57269 98.68010 10396 ft 294 kts 219°
2026-05-06 08:06 8.55706 98.66740 10329 ft 282 kts 219°
2026-05-06 08:06 8.54204 98.65519 10258 ft 272 kts 219°
2026-05-06 08:07 8.52737 98.64327 10022 ft 269 kts 219°
2026-05-06 08:07 8.51271 98.63137 9702 ft 270 kts 218°
2026-05-06 08:07 8.49754 98.62052 9357 ft 271 kts 213°
2026-05-06 08:07 8.48131 98.61041 9063 ft 270 kts 211°
2026-05-06 08:08 8.46537 98.60075 8767 ft 270 kts 211°
2026-05-06 08:08 8.44926 98.59102 8447 ft 270 kts 211°
2026-05-06 08:08 8.43328 98.58135 8291 ft 261 kts 211°
2026-05-06 08:08 8.41799 98.57209 8196 ft 252 kts 211°
2026-05-06 08:09 8.40312 98.56307 8018 ft 248 kts 211°
2026-05-06 08:09 8.38822 98.55402 7711 ft 250 kts 211°
2026-05-06 08:09 8.37355 98.54517 7546 ft 243 kts 210°
2026-05-06 08:09 8.35991 98.53578 7415 ft 233 kts 227°
2026-05-06 08:10 8.34837 98.52431 7074 ft 236 kts 217°
2026-05-06 08:10 8.33352 98.51710 6537 ft 247 kts 192°
2026-05-06 08:10 8.31622 98.51778 6095 ft 252 kts 165°
2026-05-06 08:10 8.29977 98.52325 5982 ft 243 kts 160°
2026-05-06 08:11 8.28449 98.52914 5851 ft 231 kts 159°
2026-05-06 08:11 8.26978 98.53491 5616 ft 224 kts 159°
2026-05-06 08:11 8.25520 98.54060 5195 ft 228 kts 159°
2026-05-06 08:11 8.24010 98.54623 4839 ft 232 kts 164°
2026-05-06 08:12 8.22462 98.54920 4664 ft 225 kts 173°
2026-05-06 08:12 8.20923 98.55085 4509 ft 220 kts 175°
2026-05-06 08:12 8.19399 98.55225 4288 ft 218 kts 175°
2026-05-06 08:12 8.17880 98.55363 4035 ft 218 kts 175°
2026-05-06 08:13 8.16385 98.55499 3799 ft 217 kts 176°
2026-05-06 08:13 8.14907 98.55347 3543 ft 214 kts 206°
2026-05-06 08:13 8.13888 98.54322 3329 ft 204 kts 243°
2026-05-06 08:13 8.13372 98.53080 3254 ft 183 kts 250°
2026-05-06 08:14 8.12968 98.51927 3126 ft 166 kts 253°
2026-05-06 08:14 8.12749 98.50820 2893 ft 159 kts 263°
2026-05-06 08:14 8.12652 98.49705 2558 ft 159 kts 265°
2026-05-06 08:14 8.12578 98.48619 2326 ft 151 kts 266°
2026-05-06 08:15 8.12509 98.47598 2173 ft 139 kts 266°
2026-05-06 08:15 8.12439 98.46629 2201 ft 140 kts 266°
2026-05-06 08:15 8.12385 98.45634 2200 ft 143 kts 267°
2026-05-06 08:15 8.12365 98.44623 2191 ft 144 kts 265°
2026-05-06 08:16 8.12229 98.43631 2191 ft 144 kts 263°
2026-05-06 08:16 8.12161 98.42616 2089 ft 145 kts 267°
2026-05-06 08:16 8.12112 98.41599 1883 ft 144 kts 269°
2026-05-06 08:16 8.12104 98.40589 1716 ft 143 kts 270°
2026-05-06 08:17 8.12094 98.39590 1543 ft 143 kts 268°
2026-05-06 08:17 8.12013 98.38588 1365 ft 143 kts 265°
2026-05-06 08:17 8.11913 98.37592 1192 ft 142 kts 264°
2026-05-06 08:17 8.11803 98.36611 1023 ft 142 kts 264°
2026-05-06 08:18 8.11699 98.35611 798 ft 142 kts 263°
2026-05-06 08:18 8.11600 98.34618 581 ft 142 kts 265°
2026-05-06 08:18 8.11542 98.33960 396 ft 142 kts 264°
2026-05-06 08:18 8.11412 98.32663 108 ft 137 kts 265°
2026-05-06 08:19 8.11334 98.31796 49 ft 93 kts 264°
2026-05-06 08:19 8.11303 98.31486 41 ft 52 kts 264°
2026-05-06 08:19 8.11263 98.31048 33 ft 41 kts 265°
2026-05-06 08:19 8.11248 98.30875 33 ft 35 kts 265°
2026-05-06 08:20 8.11217 98.30549 31 ft 34 kts 261°
2026-05-06 08:20 8.11190 98.30369 30 ft 12 kts 248°
2026-05-06 08:20 8.11164 98.30350 30 ft 5 kts 195°
2026-05-06 08:20 8.11124 98.30349 30 ft 7 kts 177°
2026-05-06 08:21 8.11071 98.30353 30 ft 9 kts 173°
2026-05-06 08:21 8.11026 98.30390 30 ft 9 kts 134°
2026-05-06 08:21 8.10976 98.30399 31 ft 8 kts 191°
2026-05-06 08:21 8.10913 98.30382 30 ft 10 kts 195°
2026-05-06 08:22 8.10835 98.30362 30 ft 13 kts 194°
2026-05-06 08:22 8.10771 98.30364 30 ft 8 kts 161°
2026-05-06 08:22 8.10713 98.30385 30 ft 10 kts 160°
2026-05-06 08:22 8.10651 98.30386 30 ft 8 kts 193°
2026-05-06 08:23 8.10613 98.30382 30 ft 1 kts 163°
2026-05-06 08:23 8.10604 98.30391 30 ft 2 kts 133°
2026-05-06 08:23 8.10598 98.30407 31 ft 3 kts 108°
2026-05-06 08:23 8.10590 98.30435 31 ft 5 kts 105°
2026-05-06 08:24 8.10583 98.30464 31 ft 1 kts 105°